Weather WX

World > North America > United States > Illinois

Brookfield, Illinois Regional Weather

Lat: 41.82N, Lon: 87.85W
Wx Zone: ILZ014
Warning FLW WEATHER ALERT - (More Info. Click Here) Warning
Feedback

Brookfield, IL Regional Weather

Expires:201906200600;;767761
ASUS43 KLOT 200509
RWRIL 

ILLINOIS REGIONAL WEATHER ROUNDUP
NATIONAL WEATHER SERVICE CHICAGO/ROMEOVILLE IL
1200 AM CDT THU JUN 20 2019

NOTE: "FAIR" INDICATES FEW OR NO CLOUDS BELOW 12,000 FEET WITH NO
SIGNIFICANT WEATHER AND/OR OBSTRUCTIONS TO VISIBILITY.

* THESE STATIONS ARE NOT UNDER NWS QUALITY CONTROL. THEY ALSO MAY NOT
  REPORT WEATHER SUCH AS PRECIPITATION OR FOG.


ILZ005-006-012>014-019>023-200600-
NORTHEAST ILLINOIS
  
CITY           SKY/WX    TMP DP  RH WIND       PRES   REMARKS
CHICAGO-OHARE  LGT RAIN  56  53  90 N12       29.66F                  
CHICAGO-MIDWAY LGT RAIN  56  54  93 N14       29.64F                  
AURORA         RAIN      57  54  89 N6        29.67F FOG              
LANSING*       HVY RAIN  54  54 100 N10       29.63F                  
JOLIET*        RAIN      58  58 100 CALM      29.66R                  
WAUKEGAN       CLOUDY    56  52  86 N8        29.68F                  
DUPAGE AIRPORT RAIN      57  53  86 N8        29.66F                  
KANKAKEE*      HVY RAIN  59  58  98 N6        29.64F                  
WHEELING       LGT RAIN  58  52  80 N9        29.68F                  
MORRIS*        LGT RAIN  57  56  97 CALM      29.65F                  
ROMEOVILLE*    RAIN      55  55  97 N13G21    29.64F                  
NORTHERLY ISL    N/A     53  50  89 NW16        N/A                   
$$


SKY/WX - Weather  TMP - Temperature  DP - Dew Point  RH - Relative Humidity
WIND - Wind Direction/Speed PRES - Barometric Pressure VSB - Visibility
WCI - Wind Chill Index E13G22 Wind - East Wind 13 mph/Gusts of 22 mph